20141114,2190
20141117,2190
20141118,2179
20141119,2222
20141120,2276
20141121,2297
20141125,2342
20141126,2368
20141127,2449
20141128,2679
20141201,2808
20141202,2804
20141203,2932
20141204,2963
20141205,2976
20141208,2999
20141209,3078
20141210,3366
20141211,3342
20141212,3715
20141215,3910
20141216,3929
20141217,3637
20141218,3676
20141219,3791
20141222,4017
20141224,4082
20141225,4132
20141226,4195
20141229,4244
20141230,4246
20150105,4210
20150106,4188
20150107,4158
20150108,4182
20150109,4240
20150113,4210
20150114,4236
20150115,4220
20150116,4236
20150119,4394
20150120,4406
20150121,4465
20150122,4460
20150123,4490
20150126,4540
20150127,4598
20150128,4615
20150129,4630
20150130,4282
20150202,4303
20150203,4297
20150204,4180
20150205,4205
20150206,4219
20150209,4255
20150210,4247
20150212,4291
20150213,4170
20150216,4224
20150217,4190
20150218,4228
20150219,4238
20150220,4305
20150223,4398
20150224,4554
20150225,4316
20150226,4361
20150227,4560
20150302,4650
20150303,4671
20150304,4711
20150305,4708
20150306,4744
20150309,4752
20150310,4754
20150311,4747
20150312,4604
20150313,4735
20150316,4756
20150317,4816
20150318,4920
20150319,4846
20150320,4896
20150323,4958
20150324,5030
20150325,5096
20150326,5005
20150327,4974
20150330,5021
20150331,5240
20150401,5269
20150402,5257
20150403,5300
20150406,5338
20150407,5348
20150408,5395
20150409,5405
20150410,5532
20150413,5518
20150414,5589
20150415,5647
20150416,5675
20150417,5738
20150420,5751
20150421,5816
20150422,5914
20150423,5929
20150424,5974
20150427,6355
20150428,6415
20150430,6475
20150501,6535
20150507,6596
20150508,6677
20150511,6755
20150512,6809
20150513,6663
20150514,6979
20150515,7257
20150518,7414
20150519,7576
20150520,7780
20150521,7909
20150522,7998
20150525,7826
20150526,8609
20150527,8674
20150528,8709
20150529,9015
20150601,9015
20150602,9094
20150603,9122
20150604,9187
20150605,9299
20150608,9582
20150609,9581
20150610,9587
20150611,9614
20150612,9695
20150615,9798
20150616,9819
20150617,9853
20150618,9975
20150619,10050
20150622,10408
20150623,10550
20150624,10705
20150625,10725
20150626,10753
20150629,10831
20150630,10844
20150701,10976
20150702,11149
20150703,11225
20150706,11243
20150707,11235
20150708,11213
20150709,11163
20150710,11248
20150713,11209
20150714,11376
20150715,11473
20150716,11545
20150717,11674
20150721,11720
20150722,11747
20150723,11769
20150724,11872
20150727,11711
20150728,11685
20150729,11777
20150730,11899
20150731,11968
20150803,12089
20150804,12164
20150805,12225
20150806,12298
20150807,12286
20150810,12334
20150811,12460
20150812,12517
20150813,12237
20150814,13152
20150817,13311
20150818,13455
20150819,13583
20150820,13453
20150821,13505
20150824,13321
20150825,12885
20150826,13292
20150827,13508
20150828,13936
20150831,14322
20150901,14399
20150902,14142
20150903,14105
20150904,14270
20150907,14101
20150908,14151
20150909,14200
20150910,14441
20150911,14381
20150914,13995
20150915,13990
20150916,14054
20150917,14186
20150918,14233
20150924,14091
20150925,14021
20150928,14194
20150929,14032
20150930,13830
20151001,14064
20151002,14253
20151005,14312
20151006,14534
20151007,14571
20151008,14584
20151009,14589
20151013,14737
20151014,14571
20151015,14451
20151016,14542
20151019,14665
20151020,14653
20151021,14690
20151022,14740
20151023,14841
20151026,14963
20151027,14941
20151028,14892
20151029,14986
20151030,14959
20151102,15021
20151104,14976
20151105,15029
20151106,15134
20151109,15234
20151110,15263
20151111,15231
20151112,15213
20151113,15155
20151116,15075
20151117,15192
20151118,15266
20151119,15300
20151120,15368
20151124,15270
20151125,15203
20151126,15253
20151127,15325
20151130,15311
20151201,15266
20151202,15493
20151203,15530
20151204,15334
20151207,15310
20151208,15352
20151209,15306
20151210,15180
20151211,15184
20151214,15101
20151215,15022
20151216,15091
20151217,15407
20151218,15519
20151221,15350
20151222,15337
20151224,15512
20151225,15480
20151228,15529
20151229,15622
20151230,15706
20160104,15685
20160105,15559
20160106,15544
20160107,15505
20160108,15334
20160112,15328
20160113,15111
20160114,15258
20160115,15173
20160118,15061
20160119,14992
20160120,15089
20160121,14846
20160122,14733
20160125,15094
20160126,15204
20160127,15115
20160128,15340
20160129,15446
20160201,15798
20160202,15983
20160203,15837
20160204,15519
20160205,15475
20160208,15361
20160209,15275
20160210,15018
20160212,14724
20160215,14530
20160216,14928
20160217,14995
20160218,15022
20160219,15097
20160222,15066
20160223,15126
20160224,15048
20160225,15041
20160226,15213
20160229,15290
20160301,15187
20160302,15290
20160303,15513
20160304,15577
20160307,15666
20160308,15603
20160309,15497
20160310,15463
20160311,15512
20160314,15640
20160315,15740
20160316,15650
20160317,15613
20160318,15603
20160322,15643
20160323,15776
20160324,15757
20160325,15715
20160328,15758
20160329,15817
20160330,15863
20160331,15895
20160401,15964
20160404,15710
20160405,15718
20160406,15506
20160407,15474
20160408,15437
20160411,15465
20160412,15475
20160413,15602
20160414,15789
20160415,15986
20160418,15811
20160419,15744
20160420,15954
20160421,16002
20160422,16036
20160425,16105
20160426,16076
20160427,16088
20160428,15927
20160502,15396
20160506,15336
20160509,15375
20160510,15478
20160511,15671
20160512,15614
20160513,15621
20160516,15518
20160517,15542
20160518,15583
20160519,15645
20160520,15542
20160523,15599
20160524,15557
20160525,15626
20160526,15693
20160527,15681
20160530,15776
20160531,15860
20160601,15862
20160602,15713
20160603,15672
20160606,15605
20160607,15669
20160608,15733
20160609,15739
20160610,15675
20160613,15522
20160614,15277
20160615,15143
20160616,15220
20160617,14999
20160620,15001
20160621,15175
20160622,15225
20160623,15233
20160624,15089
20160627,14614
20160628,14560
20160629,14733
20160630,15032
20160701,15160
20160704,15229
20160705,15255
20160706,15109
20160707,14982
20160708,14977
20160711,14940
20160712,15190
20160713,15436
20160714,15461
20160715,15614
20160719,14998
20160720,14985
20160721,15111
20160722,14958
20160725,14848
20160726,14762
20160727,14676
20160728,14682
20160729,14578
20160801,14531
20160802,14525
20160803,14339
20160804,14217
20160805,14259
20160808,14366
20160809,14440
20160810,14455
20160812,14552
20160815,14541
20160816,14553
20160817,14424
20160818,14376
20160819,14337
20160822,14270
20160823,14246
20160824,14277
20160825,14290
20160826,14277
20160829,14314
20160830,14399
20160831,14406
20160901,14439
20160902,14464
20160905,14551
20160906,14540
20160907,14458
20160908,14456
20160909,14435
20160912,14334
20160913,14118
20160914,14174
20160915,14086
20160916,14015
20160920,14038
20160921,14009
20160923,14140
20160926,14085
20160927,13972
20160928,14046
20160929,14056
20160930,14109
20161003,14236
20161004,14284
20161005,14328
20161006,14369
20161007,14356
20161011,14319
20161012,14132
20161013,14096
20161014,14026
20161017,14047
20161018,14024
20161019,14059
20161020,14076
20161021,14119
20161024,14062
20161025,14128
20161026,14120
20161027,14122
20161028,14116
20161031,14146
20161101,14124
20161102,14064
20161104,13882
20161107,13759
20161108,13818
20161109,13659
20161110,13610
20161111,13853
20161114,13828
20161115,13869
20161116,13985
20161117,13980
20161118,14018
20161121,13946
20161122,13986
20161124,14075
20161125,14226
20161128,14164
20161129,14172
20161130,14105
20161201,14183
20161202,14106
20161205,14058
20161206,14026
20161207,13835
20161208,13839
20161209,13904
20161212,13955
20161213,14031
20161214,14067
20161215,14125
20161216,14156
20161219,14171
20161220,14123
20161221,14011
20161222,13993
20161226,13794
20161227,13796
20161228,13801
20161229,13811
20161230,13723
20170104,13599
20170105,13718
20170106,13701
20170110,13692
20170111,13554
20170112,13534
20170113,13447
20170116,13455
20170117,13444
20170118,13357
20170119,13356
20170120,13399
20170123,13344
20170124,13244
20170125,13200
20170126,13277
20170127,13331
20170130,13399
20170131,13296
20170201,13169
20170202,13168
20170203,13108
20170206,13124
20170207,13106
20170208,13069
20170209,13103
20170210,13184
20170213,13351
20170214,13395
20170215,13203
20170216,13241
20170217,13208
20170220,13134
20170221,13130
20170222,13164
20170223,13198
20170224,13189
20170227,13154
20170228,13128
20170301,12929
20170302,13001
20170303,13070
20170306,13074
20170307,13043
20170308,12979
20170309,12899
20170310,12812
20170313,12853
20170314,12853
20170315,12762
20170316,12729
20170317,12642
20170321,12529
20170322,12421
20170323,12312
20170324,12222
20170327,12291
20170328,12258
20170329,12488
20170330,12538
20170331,12624
20170403,12779
20170404,12746
20170405,12708
20170406,12743
20170407,12669
20170410,12711
20170411,12730
20170412,12674
20170413,12557
20170414,12384
20170417,12321
20170418,12324
20170419,12376
20170420,12346
20170421,12333
20170424,12386
20170425,12455
20170426,12549
20170427,12664
20170428,12684
20170501,12634
20170502,12549
20170508,12584
20170509,12740
20170510,12758
20170511,12459
20170512,12440
20170515,12349
20170516,12234
20170517,12131
20170518,11855
20170519,11579
20170522,11546
20170523,11580
20170524,11570
20170525,11607
20170526,11624
20170529,11632
20170530,11581
20170531,11562
20170601,11549
20170602,11610
20170605,11662
20170606,11630
20170607,11561
20170608,11449
20170609,11296
20170612,11221
20170613,11188
20170614,11188
20170615,11200
20170616,11173
20170619,11229
20170620,11267
20170621,11321
20170622,11089
20170623,11036
20170626,10997
20170627,10964
20170628,10940
20170629,10920
20170630,10825
20170703,10739
20170704,10753
20170705,10706
20170706,10696
20170707,10688
20170710,10580
20170711,10593
20170712,10597
20170713,10548
20170714,10560
20170718,10518
20170719,10394
20170720,10371
20170721,10393
20170724,10362
20170725,10315
20170726,10323
20170727,10333
20170728,10313
20170731,10261
20170801,10196
20170802,10241
20170803,10274
20170804,10200
20170807,10171
20170808,10170
20170809,10129
20170810,10121
20170814,10072
20170815,10025
20170816,10109
20170817,10151
20170818,10112
20170821,10030
20170822,9988
20170823,9997
20170824,10012
20170825,9999
20170828,9950
20170829,9954
20170830,9962
20170831,10019
20170901,10070
20170904,10087
20170905,10044
20170906,9975
20170907,9944
20170908,9951
20170911,9909
20170912,9948
20170913,10035
20170914,10069
20170915,9934
20170919,9948
20170920,10003
20170921,10004
20170922,9988
20170925,10048
20170926,9670
20170927,9573
20170928,9533
20170929,9539
20171002,9631
20171003,9574
20171004,9601
20171005,9589
20171006,9569
20171010,9557
20171011,9486
20171012,9497
20171013,9483
20171016,9445
20171017,9438
20171018,9435
20171019,9330
20171020,9311
20171023,9266
20171024,9299
20171025,9243
20171026,9207
20171027,9118
20171030,9217
20171031,9188
20171101,9178
20171102,9218
20171106,9235
20171107,9199
20171108,9223
20171109,9205
20171110,9205
20171113,8792
20171114,8928
20171115,8910
20171116,8867
20171117,8869
20171120,8935
20171121,8892
20171122,8931
20171124,8940
20171127,8984
20171128,8991
20171129,8984
20171130,9038
20171201,9084
20171204,9102
20171205,9119
20171206,9112
20171207,9057
20171208,9100
20171211,9250
20171212,9289
20171213,9320
20171214,9334
20171215,9310
20171218,9304
20171219,9415
20171220,9423
20171221,9450
20171222,9483
20171225,9486
20171226,9512
20171227,9521
20171228,9534
20171229,9523
20180104,9585
20180105,9679
20180109,9890
20180110,9951
20180111,9887
20180112,9879
20180115,9914
20180116,9944
20180117,9948
20180118,9951
20180119,9996
20180122,9997
20180123,10019
20180124,10072
20180125,9944
20180126,10002
20180129,9981
20180130,9991
20180131,9980
20180201,9949
20180202,10062
20180205,9977
20180206,9843
20180207,9600
20180208,9653
20180209,9605
20180213,9467
20180214,9507
20180215,9502
20180216,9537
20180219,9546
20180220,9629
20180221,9712
20180222,9708
20180223,9912
20180226,9938
20180227,10015
20180228,10095
20180301,10040
20180302,9926
20180305,9822
20180306,9815
20180307,9897
20180308,9884
20180309,9937
20180312,10040
20180313,10118
20180314,10119
20180315,10100
20180316,10096
20180319,9840
20180320,9801
20180322,9772
20180323,9710
20180326,9554
20180327,9572
20180328,9733
20180329,9739
20180330,9813
20180402,9949
20180403,9929
20180404,9877
20180405,9935
20180406,10041
20180409,10060
20180410,10021
20180411,10049
20180412,10078
20180413,10048
20180416,10070
20180417,10078
20180418,10087
20180419,10162
20180420,10073
20180423,10041
20180424,10037
20180425,10098
20180426,10064
20180427,10172
20180501,10179
20180502,10144
20180507,10110
20180508,10111
20180509,10139
20180510,10137
20180511,10191
20180514,10223
20180515,10240
20180516,10215
20180517,10186
20180518,10213
20180521,10232
20180522,10198
20180523,10199
20180524,10170
20180525,10076
20180528,10063
20180529,10058
20180530,10061
20180531,9952
20180601,10002
20180604,9999
20180605,10163
20180606,10206
20180607,10207
20180608,10258
20180611,10125
20180612,10105
20180613,10158
20180614,10190
20180615,10151
20180618,10175
20180619,10170
20180620,10069
20180621,10066
20180622,10074
20180625,10040
20180626,9996
20180627,9938
20180628,9962
20180629,9903
20180702,9956
20180703,9929
20180704,9921
20180705,9919
20180706,9902
20180709,9974
20180710,10034
20180711,10084
20180712,10024
20180713,10049
20180717,10126
20180718,10123
20180719,10172
20180720,10229
20180723,10155
20180724,10030
20180725,10028
20180726,10062
20180727,10072
20180730,10079
20180731,10027
20180801,10043
20180802,10108
20180803,10056
20180806,10042
20180807,10022
20180808,10046
20180809,10007
20180810,9983
20180813,9919
20180814,9795
20180815,9839
20180816,9854
20180817,9790
20180820,9844
20180821,9811
20180822,9803
20180823,9834
20180824,9852
20180827,9900
20180828,9950
20180829,9975
20180830,9992
20180831,10086
20180903,10082
20180904,10024
20180905,10032
20180906,10006
20180907,9937
20180910,9901
20180911,9906
20180912,9951
20180913,9956
20180914,10002
20180918,10067
20180919,10098
20180920,10208
20180921,10218
20180925,10379
20180926,10385
20180927,10394
20180928,10491
20181001,10547
20181002,10600
20181003,10596
20181004,10528
20181005,10478
20181009,10340
20181010,10076
20181011,10072
20181012,9832
20181015,9733
20181016,9768
20181017,9801
20181018,9956
20181019,9955
20181022,9887
20181023,9915
20181024,9842
20181025,9815
20181026,9651
20181029,9678
20181030,9623
20181031,9689
20181101,9847
20181102,9848
20181105,9936
20181106,9917
20181107,9961
20181108,9979
20181109,10166
20181112,10160
20181113,10141
20181114,10016
20181115,10039
20181116,10045
20181119,10047
20181120,10061
20181121,9991
20181122,9924
20181126,9969
20181127,9962
20181128,10042
20181129,10086
20181130,10158
20181203,10174
20181204,10238
20181205,10226
20181206,10102
20181207,10040
20181210,10038
20181211,9910
20181212,9906
20181213,9990
20181214,10027
20181217,10000
20181218,9940
20181219,9806
20181220,9802
20181221,9687
20181225,9552
20181226,9244
20181227,9322
20181228,9581
20190104,9568
20190107,9378
20190108,9598
20190109,9646
20190110,9714
20190111,9713
20190115,9770
20190116,9745
20190117,9781
20190118,9821
20190121,9895
20190122,9962
20190123,9973
20190124,9907
20190125,9922
20190128,9957
20190129,9955
20190130,9972
20190131,9980
20190201,10050
20190204,10071
20190205,10137
20190206,10186
20190207,10194
20190208,10136
20190212,10050
20190213,10146
20190214,10210
20190215,10230
20190218,10186
20190219,10271
20190220,10257
20190221,10293
20190222,10280
20190225,10237
20190226,10289
20190227,10292
20190228,10236
20190301,10232
20190304,10262
20190305,10317
20190306,10291
20190307,10257
20190308,10214
20190311,10115
20190312,10110
20190313,10233
20190314,10199
20190315,10227
20190318,10297
20190319,10276
20190320,10240
20190322,10169
20190325,10140
20190326,9979
20190327,10042
20190328,10120
20190329,10063
20190401,10119
20190402,10179
20190403,10197
20190404,10218
20190405,10219
20190408,10210
20190409,10184
20190410,10162
20190411,10112
20190412,10114
20190415,10090
20190416,10144
20190417,10131
20190418,10072
20190419,10020
20190422,9954
20190423,9942
20190424,9946
20190425,9955
20190426,9973
20190507,9842
20190508,9781
20190509,9658
20190510,9614
20190513,9641
20190514,9678
20190515,9594
20190516,9620
20190517,9630
20190520,9715
20190521,9730
20190522,9694
20190523,9718
20190524,9720
20190527,9661
20190528,9667
20190529,9657
20190530,9601
20190531,9575
20190603,9535
20190604,9450
20190605,9438
20190606,9554
20190607,9600
20190610,9640
20190611,9722
20190612,9741
20190613,9649
20190614,9619
20190617,9608
20190618,9590
20190619,9572
20190620,9658
20190621,9662
20190624,9652
20190625,9647
20190626,9639
20190627,9597
20190628,9631
20190701,9641
20190702,9732
20190703,9770
20190704,9700
20190705,9761
20190708,9768
20190709,9739
20190710,9692
20190711,9688
20190712,9672
20190716,9659
20190717,9638
20190718,9630
20190719,9528
20190722,9585
20190723,9550
20190724,9570
20190725,9615
20190726,9632
20190729,9624
20190730,9660
20190731,9690
20190801,9689
20190802,9656
20190805,9511
20190806,9356
20190807,9244
20190808,9295
20190809,9313
20190813,9383
20190814,9294
20190815,9385
20190816,9271
20190819,9297
20190820,9400
20190821,9471
20190822,9425
20190823,9467
20190826,9459
20190827,9289
20190828,9363
20190829,9372
20190830,9392
20190902,9477
20190903,9453
20190904,9467
20190905,9448
20190906,9567
20190909,9618
20190910,9645
20190911,9616
20190912,9632
20190913,9671
20190917,9632
20190918,9601
20190919,9599
20190920,9574
20190924,9557
20190925,9526
20190926,9490
20190927,9485
20190930,9480
20191001,9487
20191002,9516
20191003,9408
20191004,9281
20191007,9290
20191008,9375
20191009,9412
20191010,9349
20191011,9380
20191015,9451
20191016,9541
20191017,9583
20191018,9567
20191021,9516
20191023,9503
20191024,9456
20191025,9455
20191028,9465
20191029,9460
20191030,9492
20191031,9470
20191101,9420
20191105,9360
20191106,9433
20191107,9395
20191108,9391
20191111,9373
20191112,9343
20191113,8894
20191114,9059
20191115,9011
20191118,9028
20191119,9058
20191120,9073
20191121,9101
20191122,9082
20191125,9078
20191126,9091
20191127,9135
20191128,9172
20191129,9186
20191202,9162
20191203,9166
20191204,9080
20191205,9036
20191206,9107
20191209,9045
20191210,9064
20191211,9056
20191212,9036
20191213,9025
20191216,9102
20191217,9176
20191218,9205
20191219,9177
20191220,9376
20191223,9370
20191224,9370
20191225,9374
20191226,9375
20191227,9397
20191230,9424
20200106,9410
20200107,9273
20200108,9327
20200109,9258
20200110,9350
20200114,9382
20200115,9433
20200116,9413
20200117,9441
20200120,9496
20200121,9519
20200122,9507
20200123,9506
20200124,9492
20200127,9479
20200128,9402
20200129,9317
20200130,9373
20200131,9342
20200203,9357
20200204,9252
20200205,9320
20200206,9440
20200207,9533
20200210,9549
20200212,9501
20200213,9148
20200214,9397
20200217,9384
20200218,9374
20200219,9357
20200220,9364
20200221,9447
20200225,9450
20200226,9176
20200227,9050
20200228,8996
20200302,8725
20200303,8619
20200304,8757
20200305,8680
20200306,8857
20200309,8632
20200310,8255
20200311,8074
20200312,8217
20200313,7980
20200316,7623
20200317,7809
20200318,7675
20200319,7738
20200323,7679
20200324,7687
20200325,7688
20200326,7911
20200327,7930
20200330,8047
20200331,8004
20200401,8042
20200402,7970
20200403,7908
20200406,7945
20200407,7973
20200408,8093
20200409,8109
20200410,8151
20200413,8193
20200414,8166
20200415,8154
20200416,8194
20200417,8174
20200420,8198
20200421,8234
20200422,8188
20200423,8148
20200424,8194
20200427,8185
20200428,8216
20200430,8249
20200501,8290
20200507,8248
20200508,8181
20200511,8246
20200512,8301
20200513,8309
20200514,8272
20200515,8219
20200518,8234
20200519,8252
20200520,8359
20200521,8366
20200522,8382
20200525,8356
20200526,8390
20200527,8447
20200528,8494
20200529,8574
20200601,8573
20200602,8603
20200603,8666
20200604,8761
20200605,8813
20200608,8839
20200609,8963
20200610,8929
20200611,8881
20200612,8763
20200615,8555
20200616,8528
20200617,8665
20200618,8749
20200619,8724
20200622,8717
20200623,8695
20200624,8735
20200625,8727
20200626,8630
20200629,8645
20200630,8561
20200701,8637
20200702,8675
20200703,8696
20200706,8742
20200707,8774
20200708,8799
20200709,8764
20200710,8766
20200713,8696
20200714,8761
20200715,8748
20200716,8827
20200717,8835
20200720,8799
20200721,8832
20200722,8857
20200727,8840
20200728,8805
20200729,8798
20200730,8767
20200731,8775
20200803,8695
20200804,8781
20200805,8899
20200806,8898
20200807,8896
20200811,8909
20200812,8981
20200813,9015
20200814,9076
20200817,9053
20200818,9009
20200819,9009
20200820,8995
20200821,8989
20200824,8983
20200825,8999
20200826,9068
20200827,9084
20200828,9084
20200831,9093
20200901,9089
20200902,9092
20200903,9127
20200904,9181
20200907,9036
20200908,8976
20200909,8973
20200910,8861
20200911,8954
20200914,8912
20200915,8940
20200916,8952
20200917,8977
20200918,8932
20200923,8841
20200924,8799
20200925,8730
20200928,8741
20200929,8801
20200930,8852
20201001,8819
20201002,8830
20201005,8833
20201006,8865
20201007,8936
20201008,8888
20201009,8959
20201012,8975
20201013,8995
20201014,9058
20201015,9024
20201016,8971
20201019,8927
20201020,8962
20201021,8885
20201022,8856
20201023,8785
20201026,8799
20201027,8788
20201028,8718
20201029,8684
20201030,8563
20201102,8542
20201104,8568
20201105,8725
20201106,8835
20201109,8881
20201110,8950
20201111,9108
20201112,9164
20201113,9172
20201116,9091
20201117,9135
20201118,9142
20201119,9033
20201120,8974
20201124,8963
20201125,9009
20201126,9058
20201127,9052
20201130,9053
20201201,9007
20201202,9035
20201203,9090
20201204,9045
20201207,9009
20201208,8998
20201209,9015
20201210,9054
20201211,9008
20201214,8987
20201215,8986
20201216,8979
20201217,9008
20201218,9024
20201221,9024
20201222,8973
20201223,8918
20201224,8944
20201225,8961
20201228,8968
20201229,8972
20201230,9054
20210104,9029
20210105,8998
20210106,8972
20210107,8973
20210108,9041
20210112,9126
20210113,9104
20210114,9088
20210115,9122
20210118,9081
20210119,9031
20210120,9056
20210121,9070
20210122,9086
20210125,9087
20210126,9096
20210127,9075
20210128,9096
20210129,8990
20210201,8966
20210202,8940
20210203,8994
20210204,9082
20210205,9067
20210208,9144
20210209,9217
20210210,9221
20210212,9215
20210215,9231
20210216,9275
20210217,9313
20210218,9289
20210219,9176
20210222,9138
20210224,9127
20210225,9066
20210226,9122
20210301,8952
20210302,8985
20210303,8989
20210304,8998
20210305,8938
20210308,8939
20210309,8973
20210310,9000
20210311,9028
20210312,9065
20210315,9129
20210316,9178
20210317,9207
20210318,9205
20210319,9231
20210322,9181
20210323,9088
20210324,9078
20210325,9018
20210326,9047
20210329,9140
20210330,9228
20210331,9243
20210401,9185
20210402,9152
20210405,9201
20210406,9223
20210407,9201
20210408,9214
20210409,9160
20210412,9211
20210413,9228
20210414,9218
20210415,9213
20210416,9214
20210419,9243
20210420,9218
20210421,9147
20210422,9085
20210423,9179
20210426,9114
20210427,9133
20210428,9122
20210430,9148
20210506,9131
20210507,9168
20210510,9201
20210511,9234
20210512,9159
20210513,8827
20210514,8868
20210517,8961
20210518,9016
20210519,9063
20210520,9041
20210521,9021
20210524,9055
20210525,9070
20210526,9102
20210527,9100
20210528,9120
20210531,9187
20210601,9155
20210602,9149
20210603,9185
20210604,9232
20210607,9200
20210608,9218
20210609,9236
20210610,9237
20210611,9254
20210614,9273
20210615,9294
20210616,9349
20210617,9352
20210618,9339
20210621,9333
20210622,9233
20210623,9363
20210624,9384
20210625,9384
20210628,9416
20210629,9420
20210630,9413
20210701,9412
20210702,9410
20210705,9474
20210706,9473
20210707,9469
20210708,9433
20210709,9420
20210712,9364
20210713,9461
20210714,9501
20210715,9507
20210716,9453
20210719,9425
20210720,9358
20210721,9300
20210726,9355
20210727,9467
20210728,9475
20210729,9445
20210730,9450
20210802,9412
20210803,9461
20210804,9423
20210805,9435
20210806,9459
20210810,9469
20210811,9482
20210812,9516
20210813,9042
20210816,9271
20210817,9206
20210818,9193
20210819,9211
20210820,9131
20210823,9121
20210824,9177
20210825,9229
20210826,9231
20210827,9244
20210830,9244
20210831,9298
20210901,9322
20210902,9356
20210903,9439
20210906,9491